When you browse on this site, cookies collect data to enhance your experience and personalize the content and advertising you see.
Visit our Privacy Policy to learn more. By continuing to use the site, you agree to this use of cookies and data.
  • In Hungary
  • List of Countries
  • For 7 days
  • Water Temperature
  • Weather Map
  • News
  • Weather Widgets
  • user-avatar
    Login

    Hourly Weather Yablunivka

    Today, 16 December, Monday

    Time Temperature Precipitation Wind Pressure Humidity
    00:00 +3°C° 0 mm 5 mps 745 mmHg 73%
    01:00 +5°C° 0 mm 5 mps 745 mmHg 69%
    02:00 +5°C° 0 mm 5 mps 745 mmHg 66%
    03:00 +5°C° 0 mm 5 mps 745 mmHg 65%
    04:00 +6°C° 0 mm 5 mps 745 mmHg 64%
    05:00 +6°C° 0 mm 5 mps 745 mmHg 63%
    06:00 +6°C° 0 mm 4 mps 745 mmHg 64%
    07:00 +6°C° 0 mm 4 mps 746 mmHg 66%
    08:00 +5°C° 0 mm 4 mps 746 mmHg 67%
    09:00 +6°C° 0 mm 4 mps 747 mmHg 67%
    10:00 +6°C° 0 mm 4 mps 747 mmHg 66%
    11:00 +7°C° 0 mm 4 mps 747 mmHg 66%
    12:00 +7°C° 0 mm 4 mps 748 mmHg 67%
    13:00 +8°C° 0 mm 3 mps 748 mmHg 69%
    14:00 +9°C° 0 mm 3 mps 748 mmHg 70%
    15:00 +8°C° 0 mm 3 mps 748 mmHg 74%
    16:00 +7°C° 0 mm 2 mps 748 mmHg 79%
    17:00 +6°C° 0 mm 2 mps 749 mmHg 83%
    18:00 +6°C° 0 mm 2 mps 749 mmHg 84%
    19:00 +6°C° 0 mm 2 mps 749 mmHg 86%
    20:00 +5°C° 0 mm 2 mps 749 mmHg 87%
    21:00 +5°C° 0 mm 2 mps 749 mmHg 86%
    22:00 +6°C° 0 mm 1 mps 749 mmHg 86%
    23:00 +6°C° 0 mm 1 mps 749 mmHg 86%

    Tomorrow, 17 December, Tuesday

    Time Temperature Precipitation Wind Pressure Humidity
    00:00 +6°C° 0 mm 1 mps 749 mmHg 86%
    01:00 +5°C° 0 mm 2 mps 749 mmHg 85%
    02:00 +5°C° 0 mm 2 mps 749 mmHg 85%
    03:00 +5°C° 0 mm 2 mps 749 mmHg 85%
    04:00 +4°C° 0 mm 3 mps 749 mmHg 85%
    05:00 +3°C° 0 mm 3 mps 748 mmHg 85%
    06:00 +3°C° 0 mm 3 mps 748 mmHg 85%
    07:00 +3°C° 0 mm 3 mps 748 mmHg 84%
    08:00 +3°C° 0 mm 4 mps 748 mmHg 83%
    09:00 +5°C° 0 mm 4 mps 748 mmHg 77%
    10:00 +6°C° 0 mm 4 mps 748 mmHg 71%
    11:00 +7°C° 0 mm 4 mps 748 mmHg 65%
    12:00 +7°C° 0 mm 4 mps 748 mmHg 64%
    13:00 +8°C° 0 mm 4 mps 748 mmHg 63%
    14:00 +10°C° 0 mm 3 mps 748 mmHg 61%
    15:00 +9°C° 0 mm 3 mps 747 mmHg 66%
    16:00 +8°C° 0 mm 3 mps 747 mmHg 70%
    17:00 +7°C° 0 mm 3 mps 747 mmHg 74%
    18:00 +5°C° 0 mm 3 mps 747 mmHg 76%
    19:00 +5°C° 0 mm 3 mps 747 mmHg 77%
    20:00 +5°C° 0 mm 3 mps 747 mmHg 78%
    21:00 +5°C° 0 mm 3 mps 747 mmHg 78%
    22:00 +5°C° 0 mm 3 mps 747 mmHg 77%
    23:00 +5°C° 0 mm 3 mps 747 mmHg 77%

    Day after tomorrow, 18 December, Wednesday

    Time Temperature Precipitation Wind Pressure Humidity
    00:00 +5°C° 0 mm 3 mps 747 mmHg 76%
    01:00 +6°C° 0 mm 2 mps 747 mmHg 76%
    02:00 +6°C° 0 mm 2 mps 747 mmHg 76%
    03:00 +6°C° 0 mm 2 mps 747 mmHg 75%
    04:00 +4°C° 0 mm 3 mps 747 mmHg 74%
    05:00 +4°C° 0 mm 3 mps 747 mmHg 74%
    06:00 +4°C° 0 mm 3 mps 747 mmHg 74%
    07:00 +4°C° 0 mm 3 mps 747 mmHg 73%
    08:00 +4°C° 0 mm 3 mps 747 mmHg 73%
    09:00 +5°C° 0 mm 3 mps 747 mmHg 67%
    10:00 +7°C° 0 mm 4 mps 747 mmHg 61%
    11:00 +10°C° 0 mm 4 mps 747 mmHg 55%
    12:00 +10°C° 0 mm 4 mps 747 mmHg 53%
    13:00 +11°C° 0 mm 4 mps 747 mmHg 51%
    14:00 +12°C° 0 mm 4 mps 747 mmHg 49%
    15:00 +11°C° 0 mm 4 mps 747 mmHg 53%
    16:00 +10°C° 0 mm 4 mps 747 mmHg 57%
    17:00 +8°C° 0 mm 4 mps 747 mmHg 60%
    18:00 +8°C° 0 mm 4 mps 747 mmHg 64%
    19:00 +7°C° 0 mm 4 mps 748 mmHg 68%
    20:00 +7°C° 0 mm 4 mps 748 mmHg 72%
    21:00 +7°C° 0 mm 3 mps 748 mmHg 77%
    22:00 +7°C° 0 mm 3 mps 748 mmHg 81%
    23:00 +5°C° 0 mm 3 mps 749 mmHg 86%

    19 December, Thursday

    Time Temperature Precipitation Wind Pressure Humidity
    00:00 +5°C° 0 mm 3 mps 749 mmHg 87%
    01:00 +5°C° 0 mm 3 mps 749 mmHg 89%
    02:00 +5°C° 0 mm 2 mps 749 mmHg 90%
    03:00 +5°C° 0 mm 2 mps 749 mmHg 90%
    04:00 +5°C° 0 mm 2 mps 749 mmHg 91%
    05:00 +5°C° 0 mm 2 mps 749 mmHg 91%
    06:00 +5°C° 0 mm 2 mps 749 mmHg 91%
    07:00 +4°C° 0 mm 2 mps 749 mmHg 91%
    08:00 +4°C° 0 mm 2 mps 749 mmHg 92%
    09:00 +5°C° 0 mm 2 mps 750 mmHg 89%
    10:00 +6°C° 0 mm 2 mps 750 mmHg 87%
    11:00 +6°C° 0 mm 2 mps 750 mmHg 85%
    12:00 +7°C° 0 mm 2 mps 750 mmHg 84%
    13:00 +8°C° 0 mm 1 mps 750 mmHg 83%
    14:00 +8°C° 0 mm 1 mps 750 mmHg 82%
    15:00 +8°C° 0 mm 1 mps 750 mmHg 85%
    16:00 +7°C° 0 mm 1 mps 750 mmHg 88%
    17:00 +6°C° 0 mm 1 mps 750 mmHg 91%
    18:00 +6°C° 0 mm 1 mps 750 mmHg 92%
    19:00 +5°C° 0 mm 2 mps 750 mmHg 93%
    20:00 +4°C° 0 mm 2 mps 750 mmHg 94%
    21:00 +4°C° 0 mm 2 mps 750 mmHg 93%
    22:00 +4°C° 0 mm 2 mps 750 mmHg 93%
    23:00 +4°C° 0 mm 2 mps 750 mmHg 92%

    20 December, Friday

    Time Temperature Precipitation Wind Pressure Humidity
    00:00 +4°C° 0 mm 2 mps 750 mmHg 91%
    01:00 +3°C° 0 mm 2 mps 750 mmHg 90%
    02:00 +2°C° 0 mm 3 mps 749 mmHg 88%
    03:00 +2°C° 0 mm 3 mps 749 mmHg 87%
    04:00 +2°C° 0 mm 3 mps 749 mmHg 86%
    05:00 +2°C° 0 mm 3 mps 748 mmHg 85%
    06:00 +2°C° 0 mm 3 mps 748 mmHg 83%
    07:00 +1°C° 0 mm 4 mps 748 mmHg 82%
    08:00 0°C° 0 mm 4 mps 748 mmHg 80%
    09:00 +1°C° 0 mm 5 mps 748 mmHg 76%
    10:00 +2°C° 0 mm 5 mps 748 mmHg 72%
    11:00 +2°C° 0 mm 5 mps 748 mmHg 68%
    12:00 +3°C° 0 mm 5 mps 747 mmHg 67%
    13:00 +3°C° 0 mm 5 mps 747 mmHg 66%
    14:00 +3°C° 0 mm 5 mps 746 mmHg 64%
    15:00 +3°C° 0 mm 5 mps 746 mmHg 67%
    16:00 +2°C° 0 mm 5 mps 746 mmHg 69%
    17:00 +3°C° 0 mm 4 mps 745 mmHg 72%
    18:00 +3°C° 0 mm 4 mps 745 mmHg 73%
    19:00 +3°C° 0 mm 4 mps 745 mmHg 74%
    20:00 +3°C° 0 mm 4 mps 744 mmHg 75%
    21:00 +3°C° 0 mm 4 mps 744 mmHg 77%
    22:00 +3°C° 0 mm 4 mps 744 mmHg 79%
    23:00 +3°C° 0 mm 4 mps 744 mmHg 81%

    21 December, Saturday

    Time Temperature Precipitation Wind Pressure Humidity
    00:00 +3°C° 0 mm 4 mps 744 mmHg 83%
    01:00 +3°C° 0 mm 3 mps 744 mmHg 84%
    02:00 +3°C° 0 mm 3 mps 743 mmHg 85%
    03:00 +3°C° 0 mm 3 mps 743 mmHg 86%
    04:00 +4°C° 0 mm 2 mps 743 mmHg 88%
    05:00 +4°C° 0 mm 2 mps 743 mmHg 89%
    06:00 +4°C° 0 mm 2 mps 743 mmHg 90%
    07:00 +4°C° 0 mm 2 mps 743 mmHg 91%
    08:00 +4°C° 0 mm 2 mps 743 mmHg 91%
    09:00 +4°C° 0 mm 3 mps 743 mmHg 92%
    10:00 +4°C° 0 mm 3 mps 743 mmHg 92%
    11:00 +5°C° 0 mm 3 mps 743 mmHg 93%
    12:00 +5°C° 0 mm 3 mps 743 mmHg 91%
    13:00 +7°C° 0 mm 3 mps 743 mmHg 89%
    14:00 +7°C° 0 mm 3 mps 742 mmHg 87%
    15:00 +7°C° 0 mm 3 mps 742 mmHg 87%
    16:00 +5°C° 0 mm 3 mps 742 mmHg 87%
    17:00 +5°C° 0 mm 3 mps 742 mmHg 88%
    18:00 +4°C° 0 mm 3 mps 742 mmHg 88%
    19:00 +4°C° 0 mm 3 mps 742 mmHg 89%
    20:00 +4°C° 0 mm 3 mps 742 mmHg 90%
    21:00 +4°C° 0 mm 4 mps 742 mmHg 89%
    22:00 +4°C° 0 mm 4 mps 742 mmHg 88%
    23:00 +4°C° 0 mm 4 mps 742 mmHg 87%
    Show more